Regional Weather Roundup
Issued by NWS

Home | Current Version | Previous Version | Graphics & Text | Print | Product List | Glossary On
Versions: 1 2 3 4 5 6 7 8 9 10 11 12 13 14 15 16 17 18 19 20 21 22 23 24 25 26 27 28 29 30 31 32 33 34 35 36 37 38 39 40 41 42 43 44 45 46 47 48 49 50
000
ASUS43 KFSD 211510
RWRSD

WEATHER ROUNDUP FOR SOUTH DAKOTA
NATIONAL WEATHER SERVICE SIOUX FALLS SD
900 AM CST SUN JAN 21 2018

NOTE: "FAIR" INDICATES FEW OR NO CLOUDS BELOW 12,000 FEET WITH NO
SIGNIFICANT WEATHER AND/OR OBSTRUCTIONS TO VISIBILITY.


SDZ001>005-009-010-012>017-211600-
NORTHWEST AND NORTH CENTRAL SOUTH DAKOTA

CITY           SKY/WX    TMP DP  RH WIND       PRES   REMARKS
BUFFALO          N/A     22  17  81 W8        29.93R WCI  12
FAITH            N/A     27  23  85 NW6       30.00S WCI  20
MOBRIDGE       MOCLDY    26  22  84 N6        29.99R WCI  19
$$

SDZ012>016-024>037-041>051-057-063-072>074-211600-
SOUTHWEST AND SOUTH CENTRAL SOUTH DAKOTA

CITY           SKY/WX    TMP DP  RH WIND       PRES   REMARKS
RAPID CTY ARPT CLOUDY    30  23  75 N12       29.98S WCI  20
PIERRE         CLOUDY    31  29  92 NW6       30.00R WCI  25
CUSTER         LGT SNOW  22  15  75 NE7       29.89S WCI  13
ELLSWORTH AFB  CLOUDY    30  24  78 N9        29.98S WCI  22
PHILIP         CLOUDY    31  29  92 NW10      30.01R WCI  22
PINE RIDGE     LGT SNOW  29  27  92 N10       29.97R FOG     WCI  20
SPEARFISH        N/A     27  21  80 SW5       29.99S WCI  21
WINNER         LGT SNOW  34  32  92 N12       29.97R VSB 1   WCI  25
$$

SDZ004>011-016>023-039-040-211600-
NORTHEAST SOUTH DAKOTA

CITY           SKY/WX    TMP DP  RH WIND       PRES   REMARKS
ABERDEEN       MOCLDY    25  22  88 N9        30.00R WCI  15
WATERTOWN      CLOUDY    32  29  88 CALM      29.95R
BROOKINGS      LGT RAIN  34  32  92 NE10      29.95R WCI  26
SISSETON         N/A     28  24  85 NW9       29.99R WCI  19
$$

SDZ017-020-022-023-036>040-048>070-211600-
SOUTHEAST SOUTH DAKOTA

CITY           SKY/WX    TMP DP  RH WIND       PRES   REMARKS
SIOUX FALLS    CLOUDY    34  29  82 N7        29.93R WCI  28
HURON          LGT SNOW  32  31  96 NW5       29.98S VSB 1   WCI  27
CHAMBERLAIN    MIX PCPN  34  34 100 NW9       29.98R WCI  26
MITCHELL       CLOUDY    35  32  88 N13       29.96S WCI  26
YANKTON        CLOUDY    31  28  89 NE3       29.92R
$$

ABBREVIATIONS USED IN REMARKS
   TC - TEMPERATURE IN CELSIUS
  WCI - WIND CHILL INDEX
   HX - HEAT INDEX
  VSB - VISIBILITY





USA.gov is the U.S. government's official web portal to all federal, state and local government web resources and services.